YAMAL 402

Last updated on Sat Sep 12 2026 00:03:01 GMT+0000 (Coordinated Universal Time)

1 39022U 12070A 26254.52104549 .00000069 00000+0 00000+0 0 9998 2 39022 1.4806 82.9414 0003530 87.1916 62.8881 1.00273072 50266
UTC large
Height (km)
Speed (km/s)
/
Latitude / Longitude
Inclination (degrees)
Orbital Period (minutes)
Azimuth
Elevation
Range (km)
Doppler Factor

Next 0 passes for location: London (51.5072 / 0.1276)

No passes found over London.
YAMAL 402